{"data":{"norad_id":66447,"intl_designator":"2025-259AB","name":"STARLINK-34851","alt_names":[],"object_type":"PAYLOAD","status":"ACTIVE","operator":null,"country":"US","launch_date":"2025-11-11","launch_site_code":"AFETR","launch_vehicle":null,"mission":null,"orbit_class":"UNKNOWN","rcs_meters":null,"size_class":null,"mass_kg":null,"dimensions":null,"purposes":["comms"],"wikipedia_slug":null,"has_3d_model":false,"image_url":null,"decayed_at":null,"tle_current":{"epoch":"2026-05-25T04:10:12.342144Z","epoch_age_seconds":60347,"freshness":"FRESH","line1":"1 66447U 25259AB  26145.17375396  .00010599  00000+0  39398-3 0  9997","line2":"2 66447  42.9977 202.8204 0000745 275.1915  84.8851 15.27590310 31079","mean_motion":15.2759031,"eccentricity":7.45e-5,"inclination_deg":42.9977,"raan_deg":202.8204,"arg_perigee_deg":275.1915,"mean_anomaly_deg":84.8851,"bstar":0.00039398,"rev_number":3107,"period_min":94.266112489284,"perigee_km":482.50706830007,"apogee_km":483.5293804285,"semimajor_km":6861.1552243643,"source":"CELESTRAK","updated_at":"2026-05-25T13:38:21.212561Z"}}}